| time (UTC) | temp C | wind direction | speed KPH | gust KPH | rain 1hr cm | rain 24hr cm | rain mn cm | humidity % | barometer mb |
| 20260504081547 | 6 | 248 | 1.6 | 6.4 | 0.00 | 0.00 | 0.00 | 63 | 1010.9 |
| 20260504044535 | 6 | 0 | 0.0 | 0.0 | 0.00 | 0.00 | 0.00 | 75 | 1011.0 |
| 20260504043040 | 5 | 13 | 0.0 | 1.6 | 0.00 | 0.00 | 0.00 | 74 | 1011.1 |
| 20260504041540 | 5 | 0 | 0.0 | 0.0 | 0.00 | 0.00 | 0.00 | 74 | 1011.2 |
| 20260504040042 | 5 | 0 | 0.0 | 0.0 | 0.00 | 0.00 | 0.00 | 72 | 1011.0 |
| 20260504034540 | 5 | 0 | 0.0 | 1.6 | 0.00 | 0.00 | 0.00 | 74 | 1010.9 |
| 20260504033039 | 5 | 0 | 0.0 | 1.6 | 0.00 | 0.00 | 0.00 | 72 | 1010.9 |
| 20260504031538 | 5 | 0 | 0.0 | 1.6 | 0.00 | 0.00 | 0.00 | 71 | 1010.9 |
| 20260504030036 | 5 | 359 | 0.0 | 1.6 | 0.00 | 0.00 | 0.00 | 69 | 1010.9 |
| 20260504024541 | 6 | 0 | 0.0 | 1.6 | 0.00 | 0.00 | 0.00 | 65 | 1010.6 |
| 20260504023043 | 6 | 0 | 0.0 | 1.6 | 0.00 | 0.00 | 0.00 | 59 | 1010.9 |
| 20260504021538 | 6 | 0 | 0.0 | 1.6 | 0.00 | 0.00 | 0.00 | 59 | 1010.9 |
| 20260504020057 | 6 | 0 | 0.0 | 0.0 | 0.00 | 0.00 | 0.00 | 59 | 1010.9 |
| 20260504014548 | 6 | 0 | 0.0 | 1.6 | 0.00 | 0.00 | 0.00 | 58 | 1010.7 |
| 20260504013050 | 6 | 0 | 0.0 | 1.6 | 0.00 | 0.00 | 0.00 | 57 | 1010.5 |
| 20260504011543 | 6 | 0 | 0.0 | 1.6 | 0.00 | 0.00 | 0.00 | 54 | 1010.4 |
| 20260504010043 | 7 | 242 | 0.0 | 1.6 | 0.00 | 0.00 | 0.00 | 51 | 1010.3 |
| 20260504004550 | 7 | 0 | 0.0 | 1.6 | 0.00 | 0.00 | 0.00 | 50 | 1010.1 |
| 20260504003037 | 8 | 0 | 0.0 | 3.2 | 0.00 | 0.00 | 0.00 | 47 | 1010.0 |
| 20260504001545 | 8 | 0 | 0.0 | 6.4 | 0.00 | 0.00 | 0.00 | 48 | 1009.9 |
| 20260504000045 | 8 | 0 | 0.0 | 1.6 | 0.00 | 0.00 | 0.00 | 45 | 1009.7 |
| 20260503234543 | 8 | 0 | 0.0 | 3.2 | 0.00 | 0.00 | 0.00 | 45 | 1009.6 |
| 20260503233042 | 9 | 204 | 3.2 | 11.3 | 0.00 | 0.00 | 0.00 | 40 | 1009.4 |
| 20260503231540 | 10 | 203 | 6.4 | 11.3 | 0.00 | 0.00 | 0.00 | 38 | 1009.3 |
| 20260503230049 | 10 | 174 | 9.7 | 22.5 | 0.00 | 0.00 | 0.00 | 36 | 1009.1 |
| 20260503224536 | 10 | 160 | 4.8 | 17.7 | 0.00 | 0.00 | 0.00 | 34 | 1008.8 |
| 20260503223045 | 11 | 131 | 8.0 | 20.9 | 0.00 | 0.00 | 0.00 | 34 | 1008.9 |
| 20260503221541 | 11 | 200 | 11.3 | 24.1 | 0.00 | 0.00 | 0.00 | 34 | 1008.8 |
| 20260503220047 | 11 | 141 | 6.4 | 17.7 | 0.00 | 0.00 | 0.00 | 35 | 1009.0 |
| 20260503214539 | 11 | 137 | 9.7 | 22.5 | 0.00 | 0.00 | 0.00 | 35 | 1008.8 |
| 20260503213040 | 12 | 205 | 8.0 | 20.9 | 0.00 | 0.00 | 0.00 | 35 | 1008.8 |
| 20260503211537 | 11 | 163 | 6.4 | 16.1 | 0.00 | 0.00 | 0.00 | 40 | 1008.7 |
| 20260503210037 | 11 | 134 | 9.7 | 24.1 | 0.00 | 0.00 | 0.00 | 38 | 1008.9 |
| 20260503204541 | 11 | 217 | 8.0 | 29.0 | 0.00 | 0.00 | 0.00 | 40 | 1008.9 |
| 20260503203052 | 11 | 225 | 8.0 | 30.6 | 0.00 | 0.00 | 0.00 | 39 | 1008.9 |
| 20260503201541 | 10 | 179 | 8.0 | 20.9 | 0.00 | 0.00 | 0.00 | 41 | 1009.0 |
| 20260503200038 | 10 | 222 | 6.4 | 32.2 | 0.00 | 0.00 | 0.00 | 44 | 1009.2 |
| 20260503194544 | 10 | 162 | 9.7 | 22.5 | 0.00 | 0.00 | 0.00 | 43 | 1009.3 |
| 20260503193039 | 10 | 158 | 11.3 | 22.5 | 0.00 | 0.00 | 0.00 | 46 | 1009.5 |
| 20260503191547 | 9 | 316 | 8.0 | 33.8 | 0.00 | 0.00 | 0.00 | 44 | 1009.7 |
| 20260503190043 | 8 | 177 | 12.9 | 35.4 | 0.00 | 0.00 | 0.00 | 44 | 1009.6 |
| 20260503184540 | 8 | 154 | 12.9 | 30.6 | 0.00 | 0.00 | 0.00 | 45 | 1009.8 |
| 20260503183040 | 8 | 132 | 11.3 | 30.6 | 0.00 | 0.00 | 0.00 | 45 | 1009.9 |
| 20260503181541 | 8 | 159 | 14.5 | 35.4 | 0.00 | 0.00 | 0.00 | 42 | 1010.0 |
| 20260503180038 | 8 | 163 | 8.0 | 20.9 | 0.00 | 0.00 | 0.00 | 46 | 1009.9 |
| 20260503174541 | 8 | 221 | 12.9 | 22.5 | 0.00 | 0.00 | 0.00 | 45 | 1009.9 |
| 20260503173041 | 8 | 124 | 11.3 | 32.2 | 0.00 | 0.00 | 0.00 | 44 | 1009.8 |
| 20260503171538 | 8 | 139 | 9.7 | 32.2 | 0.00 | 0.00 | 0.00 | 46 | 1009.8 |